Location: Newark
(48.9358°N, 1.4000°E)
Time: 16:30:34
(UTC+00:00)

N. Korean satellite - Visible Passes

Search period start: 14 October 2019 00:00
Search period end: 24 October 2019 00:00
Orbit: 455 x 508 km, 97.2° (Epoch: 14 October)

Date Brightness Start Highest point End Pass type
(mag) Time Alt. Az. Time Alt. Az. Time Alt. Az.
14 Oct 10.0 18:00:48 10° SW 18:02:53 15° W 18:04:59 10° NW visible
15 Oct 8.8 05:21:36 10° NNE 05:24:48 30° E 05:28:01 10° SSE visible
15 Oct 9.0 17:34:24 10° SSW 17:37:25 28° W 17:40:28 10° NW visible
16 Oct 10.0 04:56:59 10° NE 04:59:21 16° E 05:01:42 10° SE visible
18 Oct 7.7 05:38:53 10° NNE 05:42:22 49° E 05:45:55 10° S visible
18 Oct 9.8 17:52:34 10° SW 17:55:01 18° W 17:57:30 10° NW visible
19 Oct 9.2 05:13:55 10° NE 05:16:59 25° E 05:20:03 10° SSE visible
19 Oct 8.5 17:26:24 10° SSW 17:29:33 35° W 17:32:47 10° NNW visible
20 Oct 10.1 04:49:31 10° ENE 04:51:29 14° E 04:53:28 10° ESE visible
21 Oct 10.3 18:11:19 10° WSW 18:12:40 12° W 18:14:01 10° WNW visible
22 Oct 8.2 05:31:06 10° NNE 05:34:33 40° E 05:38:01 10° S visible
22 Oct 9.4 17:44:22 10° SSW 17:47:07 22° W 17:49:55 10° NW visible
23 Oct 9.5 05:06:15 10° NE 05:09:07 21° E 05:11:59 10° SE visible
23 Oct 7.9 17:18:23 10° S 17:21:40 43° W 17:25:02 10° NNW visible
